DFHOT EDFG-LGAV

Flight info

Callsign DFHOT
Flight time N/A
Altitude 25000
Route CINDY DCT HAREM DCT XERUM DCT RADIZ DCT EBITI DCT IDASI DCT AKIKA DCT BITLA DCT ROPOX
Aircraft PC12/L-SDFGRWY/S

Departure

Time 2026-04-21 13:23
Airport Gelnhausen Airfield (EDFG)

Arrival

Time N/A
Airport Athens Eleftherios Venizelos International Airport (LGAV)
Time Latitude Longitude Altitude Speed Heading
2026-04-21 13:01 50.19755 9.17413 430 ft 0 kts 336°
2026-04-21 13:20 50.19758 9.17410 435 ft 4 kts 322°
2026-04-21 13:20 50.19759 9.17381 433 ft 1 kts 220°
2026-04-21 13:20 50.19751 9.17377 435 ft 0 kts 180°
2026-04-21 13:21 50.19738 9.17379 431 ft 4 kts 171°
2026-04-21 13:21 50.19702 9.17337 427 ft 11 kts 260°
2026-04-21 13:22 50.19664 9.16987 432 ft 56 kts 261°
2026-04-21 13:22 50.19575 9.16162 436 ft 94 kts 264°
2026-04-21 13:22 50.19449 9.15122 594 ft 99 kts 263°
2026-04-21 13:22 50.19310 9.14035 854 ft 105 kts 267°
2026-04-21 13:23 50.19143 9.12882 1067 ft 122 kts 258°
2026-04-21 13:23 50.18435 9.12053 1287 ft 137 kts 180°
2026-04-21 13:23 50.17501 9.12229 1675 ft 137 kts 163°
2026-04-21 13:23 50.16525 9.12377 2074 ft 143 kts 168°
2026-04-21 13:24 50.15535 9.12617 2472 ft 149 kts 179°
2026-04-21 13:24 50.14665 9.12931 2735 ft 131 kts 100°
2026-04-21 13:24 50.14477 9.14323 3005 ft 135 kts 113°
2026-04-21 13:24 50.13522 9.15002 2969 ft 171 kts 161°
2026-04-21 13:25 50.12260 9.15201 3017 ft 196 kts 177°
2026-04-21 13:25 50.10926 9.15591 2986 ft 200 kts 164°
2026-04-21 13:25 50.09506 9.15353 2991 ft 209 kts 186°
2026-04-21 13:25 50.08061 9.14972 3039 ft 216 kts 182°
2026-04-21 13:26 50.06529 9.14720 2985 ft 215 kts 171°
2026-04-21 13:26 50.05109 9.14996 3629 ft 183 kts 165°
2026-04-21 13:26 50.03882 9.15415 3533 ft 192 kts 160°
2026-04-21 13:26 50.02628 9.16166 3369 ft 200 kts 173°
2026-04-21 13:27 50.01742 9.15733 3350 ft 205 kts 201°
2026-04-21 13:27 50.00392 9.14763 3180 ft 218 kts 202°
2026-04-21 13:27 49.98982 9.13971 3387 ft 208 kts 188°
2026-04-21 13:27 49.97183 9.13262 3273 ft 196 kts 168°
2026-04-21 13:28 49.96300 9.13713 3119 ft 198 kts 154°
2026-04-21 13:28 49.95016 9.14474 2964 ft 210 kts 153°
2026-04-21 13:28 49.93638 9.15441 2824 ft 214 kts 149°
2026-04-21 13:28 49.92373 9.16533 2957 ft 204 kts 142°
2026-04-21 13:29 49.91061 9.17098 3068 ft 188 kts 167°
2026-04-21 13:29 49.90452 9.18491 2828 ft 181 kts 68°
2026-04-21 13:29 49.92043 9.18771 2547 ft 208 kts 341°
2026-04-21 13:29 49.92905 9.18199 2659 ft 192 kts 342°
2026-04-21 13:30 49.94170 9.17505 2270 ft 192 kts 350°
2026-04-21 13:30 49.95476 9.17284 2174 ft 184 kts
2026-04-21 13:30 49.96743 9.17333 2022 ft 178 kts
2026-04-21 13:30 49.97937 9.17468 1899 ft 167 kts
2026-04-21 13:31 49.99090 9.17639 1873 ft 169 kts
2026-04-21 13:31 50.00272 9.17802 1972 ft 176 kts 11°
2026-04-21 13:31 50.01507 9.17998 1985 ft 183 kts
2026-04-21 13:31 50.02833 9.18112 2059 ft 192 kts
2026-04-21 13:32 50.04177 9.18111 2104 ft 193 kts
2026-04-21 13:32 50.05534 9.18003 2116 ft 200 kts 359°
2026-04-21 13:32 50.06910 9.17886 2089 ft 199 kts
2026-04-21 13:32 50.08306 9.17748 2046 ft 200 kts 359°
2026-04-21 13:33 50.09673 9.17528 2198 ft 194 kts 358°
2026-04-21 13:33 50.10990 9.17290 2255 ft 193 kts 358°
2026-04-21 13:33 50.12330 9.17023 2180 ft 197 kts 356°
2026-04-21 13:33 50.13741 9.16674 1812 ft 214 kts 353°
2026-04-21 13:34 50.15147 9.15956 1661 ft 199 kts 319°
2026-04-21 13:34 50.15530 9.13991 1413 ft 184 kts 278°
2026-04-21 13:34 50.15839 9.12343 1326 ft 144 kts 317°
2026-04-21 13:34 50.16631 9.11750 1368 ft 104 kts 351°
2026-04-21 13:35 50.17267 9.11476 1309 ft 94 kts 354°
2026-04-21 13:35 50.17840 9.11332 1289 ft 75 kts 13°
2026-04-21 13:35 50.18270 9.11746 1109 ft 75 kts 49°
2026-04-21 13:35 50.18607 9.12415 1125 ft 79 kts 49°
2026-04-21 13:36 50.18912 9.13074 1191 ft 76 kts 53°
2026-04-21 13:36 50.19147 9.13850 1111 ft 83 kts 67°
2026-04-21 13:36 50.19343 9.14651 942 ft 80 kts 64°
2026-04-21 13:36 50.19471 9.15510 651 ft 81 kts 79°
2026-04-21 13:37 50.19591 9.16323 443 ft 76 kts 77°
2026-04-21 13:37 50.19668 9.17003 432 ft 37 kts 81°
2026-04-21 13:37 50.19679 9.17112 434 ft 8 kts 81°
2026-04-21 13:37 50.19688 9.17210 436 ft 10 kts 83°
2026-04-21 13:38 50.19705 9.17347 431 ft 18 kts 59°
2026-04-21 13:38 50.19798 9.17386 431 ft 15 kts 350°
2026-04-21 13:38 50.19823 9.17362 430 ft 0 kts 260°